| time (UTC) | temp F | wind direction | speed knots | gust knots | rain 1hr in | rain 24hr in | rain mn in | humidity % | barometer mb |
| 20260505214204 | 75 | 15 | 0.9 | 3.5 | 0.00 | 0.00 | 0.00 | 50 | 1014.4 |
| 20260505213903 | 75 | 22 | 0.9 | 3.5 | 0.00 | 0.00 | 0.00 | 46 | 1014.4 |
| 20260505213804 | 75 | 11 | 0.0 | 4.3 | 0.00 | 0.00 | 0.00 | 48 | 1014.3 |
| 20260505213704 | 75 | 17 | 0.0 | 4.3 | 0.00 | 0.00 | 0.00 | 50 | 1014.4 |
| 20260505213603 | 75 | 19 | 0.0 | 4.3 | 0.00 | 0.00 | 0.00 | 47 | 1014.4 |
| 20260505213304 | 75 | 354 | 0.0 | 4.3 | 0.00 | 0.00 | 0.00 | 46 | 1014.3 |
| 20260505213104 | 75 | 323 | 0.0 | 4.3 | 0.00 | 0.00 | 0.00 | 46 | 1014.4 |
| 20260505212904 | 75 | 19 | 0.0 | 5.2 | 0.00 | 0.00 | 0.00 | 43 | 1014.3 |
| 20260505212604 | 74 | 64 | 0.9 | 5.2 | 0.00 | 0.00 | 0.00 | 48 | 1014.5 |
| 20260505212503 | 74 | 62 | 0.9 | 5.2 | 0.00 | 0.00 | 0.00 | 48 | 1014.4 |
| 20260505212404 | 74 | 61 | 0.9 | 5.2 | 0.00 | 0.00 | 0.00 | 46 | 1014.4 |
| 20260505212305 | 74 | 60 | 0.9 | 5.2 | 0.00 | 0.00 | 0.00 | 48 | 1014.4 |
| 20260505212203 | 74 | 54 | 0.9 | 6.1 | 0.00 | 0.00 | 0.00 | 52 | 1014.4 |
| 20260505212004 | 73 | 51 | 1.7 | 7.8 | 0.00 | 0.00 | 0.00 | 48 | 1014.4 |
| 20260505211704 | 73 | 49 | 1.7 | 7.8 | 0.00 | 0.00 | 0.00 | 47 | 1014.3 |
| 20260505211604 | 73 | 49 | 1.7 | 7.8 | 0.00 | 0.00 | 0.00 | 49 | 1014.3 |
| 20260505211403 | 74 | 71 | 1.7 | 7.8 | 0.00 | 0.00 | 0.00 | 45 | 1014.2 |
| 20260505211304 | 74 | 74 | 1.7 | 7.8 | 0.00 | 0.00 | 0.00 | 49 | 1014.2 |
| 20260505211204 | 74 | 74 | 1.7 | 7.8 | 0.00 | 0.00 | 0.00 | 44 | 1014.3 |
| 20260505211103 | 74 | 70 | 1.7 | 7.8 | 0.00 | 0.00 | 0.00 | 51 | 1014.3 |
| 20260505210903 | 74 | 71 | 0.9 | 7.0 | 0.00 | 0.00 | 0.00 | 49 | 1014.4 |
| 20260505210804 | 74 | 77 | 0.9 | 7.0 | 0.00 | 0.00 | 0.00 | 51 | 1014.3 |
| 20260505210703 | 74 | 75 | 0.9 | 7.0 | 0.00 | 0.00 | 0.00 | 49 | 1014.3 |
| 20260505210604 | 74 | 75 | 0.9 | 7.0 | 0.00 | 0.00 | 0.00 | 43 | 1014.2 |
| 20260505210204 | 76 | 38 | 0.9 | 5.2 | 0.00 | 0.00 | 0.00 | 43 | 1014.3 |
| 20260505210103 | 76 | 40 | 0.9 | 5.2 | 0.00 | 0.00 | 0.00 | 44 | 1014.3 |
| 20260505205903 | 76 | 14 | 0.9 | 4.3 | 0.00 | 0.00 | 0.00 | 47 | 1014.3 |
| 20260505205804 | 76 | 13 | 0.9 | 4.3 | 0.00 | 0.00 | 0.00 | 44 | 1014.3 |
| 20260505205704 | 76 | 18 | 0.9 | 4.3 | 0.00 | 0.00 | 0.00 | 48 | 1014.3 |
| 20260505205404 | 76 | 21 | 0.9 | 4.3 | 0.00 | 0.00 | 0.00 | 50 | 1014.4 |
| 20260505205305 | 76 | 25 | 0.9 | 4.3 | 0.00 | 0.00 | 0.00 | 50 | 1014.4 |
| 20260505205204 | 76 | 38 | 0.9 | 6.1 | 0.00 | 0.00 | 0.00 | 49 | 1014.4 |
| 20260505204904 | 76 | 46 | 0.9 | 6.1 | 0.00 | 0.00 | 0.00 | 46 | 1014.5 |
| 20260505204804 | 76 | 46 | 0.9 | 6.1 | 0.00 | 0.00 | 0.00 | 49 | 1014.4 |
| 20260505204703 | 76 | 47 | 0.9 | 6.1 | 0.00 | 0.00 | 0.00 | 44 | 1014.4 |
| 20260505204504 | 76 | 39 | 0.9 | 8.7 | 0.00 | 0.00 | 0.00 | 45 | 1014.4 |
| 20260505204304 | 76 | 35 | 0.9 | 8.7 | 0.00 | 0.00 | 0.00 | 46 | 1014.4 |
| 20260505204204 | 76 | 35 | 0.9 | 8.7 | 0.00 | 0.00 | 0.00 | 46 | 1014.3 |
| 20260505203604 | 76 | 53 | 0.9 | 8.7 | 0.00 | 0.00 | 0.00 | 44 | 1014.5 |
| 20260505203504 | 76 | 60 | 0.9 | 7.0 | 0.00 | 0.00 | 0.00 | 44 | 1014.5 |
| 20260505203204 | 76 | 54 | 0.9 | 7.0 | 0.00 | 0.00 | 0.00 | 44 | 1014.5 |
| 20260505203104 | 76 | 55 | 0.9 | 7.0 | 0.00 | 0.00 | 0.00 | 51 | 1014.5 |
| 20260505202804 | 76 | 63 | 0.9 | 7.0 | 0.00 | 0.00 | 0.00 | 47 | 1014.6 |
| 20260505202704 | 76 | 69 | 0.9 | 7.0 | 0.00 | 0.00 | 0.00 | 42 | 1014.5 |
| 20260505202604 | 76 | 68 | 0.9 | 7.0 | 0.00 | 0.00 | 0.00 | 42 | 1014.5 |
| 20260505202104 | 76 | 73 | 0.9 | 7.8 | 0.00 | 0.00 | 0.00 | 44 | 1014.5 |
| 20260505202003 | 76 | 74 | 0.9 | 7.8 | 0.00 | 0.00 | 0.00 | 43 | 1014.5 |
| 20260505201604 | 76 | 46 | 0.9 | 7.8 | 0.00 | 0.00 | 0.00 | 51 | 1014.5 |
| 20260505201504 | 76 | 52 | 0.9 | 7.8 | 0.00 | 0.00 | 0.00 | 55 | 1014.7 |
| 20260505201404 | 76 | 49 | 0.9 | 7.8 | 0.00 | 0.00 | 0.00 | 51 | 1014.7 |
| 20260505201303 | 76 | 42 | 0.9 | 7.8 | 0.00 | 0.00 | 0.00 | 45 | 1014.7 |
| 20260505201204 | 76 | 34 | 0.9 | 7.8 | 0.00 | 0.00 | 0.00 | 44 | 1014.7 |
| 20260505201004 | 76 | 19 | 0.9 | 6.1 | 0.00 | 0.00 | 0.00 | 49 | 1014.6 |
| 20260505200605 | 77 | 3 | 0.9 | 6.1 | 0.00 | 0.00 | 0.00 | 52 | 1014.9 |
| 20260505200404 | 77 | 333 | 0.9 | 7.8 | 0.00 | 0.00 | 0.00 | 46 | 1014.8 |
| 20260505200304 | 77 | 332 | 0.9 | 7.8 | 0.00 | 0.00 | 0.00 | 53 | 1014.9 |
| 20260505200204 | 77 | 334 | 0.9 | 7.8 | 0.00 | 0.00 | 0.00 | 48 | 1014.7 |
| 20260505200104 | 76 | 329 | 0.9 | 7.8 | 0.00 | 0.00 | 0.00 | 49 | 1014.9 |
| 20260505200004 | 77 | 329 | 0.9 | 7.8 | 0.00 | 0.00 | 0.00 | 48 | 1014.9 |
| 20260505195804 | 77 | 297 | 0.9 | 7.8 | 0.00 | 0.00 | 0.00 | 42 | 1014.8 |
| 20260505195704 | 77 | 281 | 0.9 | 8.7 | 0.00 | 0.00 | 0.00 | 44 | 1014.7 |
| 20260505195404 | 78 | 230 | 0.9 | 8.7 | 0.00 | 0.00 | 0.00 | 51 | 1014.8 |
| 20260505195305 | 77 | 220 | 0.9 | 8.7 | 0.00 | 0.00 | 0.00 | 52 | 1014.8 |
| 20260505195104 | 77 | 223 | 0.9 | 8.7 | 0.00 | 0.00 | 0.00 | 48 | 1014.8 |
| 20260505194304 | 77 | 61 | 0.9 | 7.0 | 0.00 | 0.00 | 0.00 | 53 | 1014.9 |
| 20260505194204 | 76 | 59 | 0.9 | 7.0 | 0.00 | 0.00 | 0.00 | 50 | 1014.9 |
| 20260505194104 | 76 | 62 | 0.9 | 7.0 | 0.00 | 0.00 | 0.00 | 43 | 1014.9 |
| 20260505193904 | 76 | 69 | 0.9 | 6.1 | 0.00 | 0.00 | 0.00 | 47 | 1014.9 |
| 20260505193604 | 76 | 85 | 0.9 | 6.1 | 0.00 | 0.00 | 0.00 | 48 | 1015.0 |
| 20260505193504 | 75 | 84 | 0.9 | 6.1 | 0.00 | 0.00 | 0.00 | 44 | 1014.9 |
| 20260505193304 | 76 | 74 | 0.9 | 6.1 | 0.00 | 0.00 | 0.00 | 44 | 1015.0 |
| 20260505193203 | 76 | 78 | 0.9 | 6.1 | 0.00 | 0.00 | 0.00 | 46 | 1015.1 |
| 20260505193104 | 75 | 74 | 0.9 | 6.1 | 0.00 | 0.00 | 0.00 | 49 | 1015.1 |
| 20260505193004 | 75 | 72 | 0.9 | 6.1 | 0.00 | 0.00 | 0.00 | 48 | 1015.1 |
| 20260505192904 | 75 | 348 | 0.9 | 6.1 | 0.00 | 0.00 | 0.00 | 46 | 1015.1 |
| 20260505192704 | 74 | 340 | 0.9 | 6.1 | 0.00 | 0.00 | 0.00 | 46 | 1015.1 |
| 20260505192504 | 74 | 340 | 0.9 | 6.1 | 0.00 | 0.00 | 0.00 | 47 | 1015.2 |
| 20260505192404 | 74 | 343 | 0.9 | 6.1 | 0.00 | 0.00 | 0.00 | 44 | 1015.1 |
| 20260505192305 | 74 | 330 | 0.9 | 6.1 | 0.00 | 0.00 | 0.00 | 50 | 1015.2 |
| 20260505192203 | 74 | 343 | 0.9 | 6.1 | 0.00 | 0.00 | 0.00 | 41 | 1015.1 |
| 20260505191904 | 74 | 51 | 0.9 | 5.2 | 0.00 | 0.00 | 0.00 | 45 | 1015.2 |
| 20260505191705 | 74 | 70 | 0.9 | 5.2 | 0.00 | 0.00 | 0.00 | 41 | 1015.3 |
| 20260505191403 | 73 | 57 | 0.9 | 3.5 | 0.00 | 0.00 | 0.00 | 53 | 1015.4 |
| 20260505191203 | 73 | 317 | 1.7 | 2.6 | 0.00 | 0.00 | 0.00 | 46 | 1015.3 |
| 20260505191104 | 73 | 267 | 1.7 | 6.1 | 0.00 | 0.00 | 0.00 | 50 | 1015.4 |
| 20260505190903 | 73 | 255 | 1.7 | 6.1 | 0.00 | 0.00 | 0.00 | 47 | 1015.4 |
| 20260505190503 | 73 | 257 | 0.9 | 6.1 | 0.00 | 0.00 | 0.00 | 45 | 1015.5 |
| 20260505190004 | 74 | 337 | 0.9 | 7.0 | 0.00 | 0.00 | 0.00 | 42 | 1015.7 |
| 20260505185904 | 74 | 354 | 0.9 | 7.0 | 0.00 | 0.00 | 0.00 | 39 | 1015.6 |
| 20260505185504 | 75 | 305 | 0.9 | 7.0 | 0.00 | 0.00 | 0.00 | 45 | 1015.6 |
| 20260505185305 | 75 | 303 | 0.9 | 6.1 | 0.00 | 0.00 | 0.00 | 45 | 1015.6 |
| 20260505185003 | 74 | 348 | 0.9 | 6.1 | 0.00 | 0.00 | 0.00 | 48 | 1015.8 |
| 20260505184604 | 74 | 343 | 0.9 | 6.1 | 0.00 | 0.00 | 0.00 | 46 | 1015.7 |
| 20260505184504 | 74 | 344 | 0.9 | 6.1 | 0.00 | 0.00 | 0.00 | 47 | 1015.7 |
| 20260505184103 | 74 | 2 | 0.9 | 4.3 | 0.00 | 0.00 | 0.00 | 39 | 1015.8 |
| 20260505183704 | 74 | 345 | 1.7 | 7.0 | 0.00 | 0.00 | 0.00 | 44 | 1015.9 |
| 20260505183504 | 74 | 293 | 1.7 | 7.0 | 0.00 | 0.00 | 0.00 | 50 | 1016.0 |
| 20260505183304 | 74 | 288 | 1.7 | 9.6 | 0.00 | 0.00 | 0.00 | 50 | 1016.0 |
| 20260505183204 | 74 | 282 | 1.7 | 9.6 | 0.00 | 0.00 | 0.00 | 41 | 1016.0 |
| 20260505183104 | 73 | 281 | 1.7 | 9.6 | 0.00 | 0.00 | 0.00 | 41 | 1016.0 |
| 20260505183004 | 73 | 284 | 1.7 | 9.6 | 0.00 | 0.00 | 0.00 | 45 | 1015.9 |
| 20260505182903 | 74 | 279 | 0.9 | 9.6 | 0.00 | 0.00 | 0.00 | 44 | 1016.0 |
| 20260505182804 | 74 | 275 | 0.9 | 9.6 | 0.00 | 0.00 | 0.00 | 44 | 1016.0 |
| 20260505182704 | 74 | 278 | 0.9 | 9.6 | 0.00 | 0.00 | 0.00 | 47 | 1016.1 |
| 20260505182306 | 74 | 202 | 0.9 | 8.7 | 0.00 | 0.00 | 0.00 | 47 | 1016.1 |
| 20260505182204 | 74 | 250 | 1.7 | 8.7 | 0.00 | 0.00 | 0.00 | 44 | 1016.1 |
| 20260505182104 | 74 | 285 | 1.7 | 8.7 | 0.00 | 0.00 | 0.00 | 41 | 1016.1 |
| 20260505181804 | 74 | 335 | 1.7 | 8.7 | 0.00 | 0.00 | 0.00 | 54 | 1016.3 |
| 20260505181304 | 73 | 329 | 1.7 | 10.4 | 0.00 | 0.00 | 0.00 | 44 | 1016.2 |
| 20260505181204 | 73 | 332 | 1.7 | 10.4 | 0.00 | 0.00 | 0.00 | 48 | 1016.2 |
| 20260505181104 | 73 | 324 | 1.7 | 10.4 | 0.00 | 0.00 | 0.00 | 45 | 1016.2 |
| 20260505181004 | 73 | 318 | 1.7 | 10.4 | 0.00 | 0.00 | 0.00 | 46 | 1016.3 |
| 20260505180604 | 73 | 299 | 1.7 | 10.4 | 0.00 | 0.00 | 0.00 | 49 | 1016.4 |
| 20260505180404 | 73 | 265 | 1.7 | 6.1 | 0.00 | 0.00 | 0.00 | 46 | 1016.3 |
| 20260505180104 | 73 | 357 | 1.7 | 5.2 | 0.00 | 0.00 | 0.00 | 51 | 1016.4 |
| 20260505180003 | 73 | 258 | 1.7 | 5.2 | 0.00 | 0.00 | 0.00 | 51 | 1016.4 |
| 20260505175904 | 73 | 278 | 1.7 | 5.2 | 0.00 | 0.00 | 0.00 | 45 | 1016.3 |
| 20260505175804 | 73 | 279 | 1.7 | 7.0 | 0.00 | 0.00 | 0.00 | 46 | 1016.3 |
| 20260505175504 | 73 | 274 | 2.6 | 7.0 | 0.00 | 0.00 | 0.00 | 46 | 1016.3 |
| 20260505175404 | 73 | 278 | 2.6 | 7.0 | 0.00 | 0.00 | 0.00 | 50 | 1016.4 |
| 20260505175305 | 72 | 276 | 2.6 | 7.0 | 0.00 | 0.00 | 0.00 | 46 | 1016.3 |
| 20260505175204 | 72 | 277 | 2.6 | 7.0 | 0.00 | 0.00 | 0.00 | 45 | 1016.4 |
| 20260505175004 | 72 | 285 | 2.6 | 9.6 | 0.00 | 0.00 | 0.00 | 44 | 1016.4 |
| 20260505174904 | 72 | 285 | 2.6 | 9.6 | 0.00 | 0.00 | 0.00 | 46 | 1016.4 |
| 20260505174704 | 72 | 286 | 1.7 | 9.6 | 0.00 | 0.00 | 0.00 | 52 | 1016.4 |
| 20260505174604 | 72 | 287 | 1.7 | 9.6 | 0.00 | 0.00 | 0.00 | 47 | 1016.4 |
| 20260505174404 | 71 | 287 | 1.7 | 9.6 | 0.00 | 0.00 | 0.00 | 47 | 1016.4 |
| 20260505174304 | 71 | 283 | 1.7 | 9.6 | 0.00 | 0.00 | 0.00 | 45 | 1016.3 |
| 20260505174103 | 72 | 279 | 2.6 | 7.0 | 0.00 | 0.00 | 0.00 | 43 | 1016.5 |
| 20260505174003 | 72 | 277 | 2.6 | 7.0 | 0.00 | 0.00 | 0.00 | 48 | 1016.5 |
| 20260505173904 | 72 | 275 | 2.6 | 5.2 | 0.00 | 0.00 | 0.00 | 46 | 1016.5 |
| 20260505173804 | 72 | 275 | 2.6 | 6.1 | 0.00 | 0.00 | 0.00 | 44 | 1016.4 |
| 20260505173704 | 72 | 279 | 3.5 | 8.7 | 0.00 | 0.00 | 0.00 | 47 | 1016.5 |
| 20260505173404 | 72 | 273 | 3.5 | 8.7 | 0.00 | 0.00 | 0.00 | 45 | 1016.5 |
| 20260505173104 | 72 | 275 | 4.3 | 8.7 | 0.00 | 0.00 | 0.00 | 48 | 1016.5 |
| 20260505172804 | 71 | 280 | 3.5 | 12.2 | 0.00 | 0.00 | 0.00 | 48 | 1016.6 |
| 20260505172604 | 71 | 284 | 3.5 | 12.2 | 0.00 | 0.00 | 0.00 | 46 | 1016.7 |
| 20260505172404 | 72 | 288 | 2.6 | 12.2 | 0.00 | 0.00 | 0.00 | 44 | 1016.7 |
| 20260505172105 | 72 | 290 | 2.6 | 12.2 | 0.00 | 0.00 | 0.00 | 45 | 1016.7 |
| 20260505171904 | 72 | 292 | 2.6 | 8.7 | 0.00 | 0.00 | 0.00 | 50 | 1016.8 |
| 20260505171504 | 72 | 288 | 2.6 | 10.4 | 0.00 | 0.00 | 0.00 | 49 | 1016.7 |
| 20260505171304 | 72 | 289 | 2.6 | 10.4 | 0.00 | 0.00 | 0.00 | 44 | 1016.9 |
| 20260505171104 | 72 | 291 | 2.6 | 10.4 | 0.00 | 0.00 | 0.00 | 51 | 1016.8 |
| 20260505171004 | 72 | 286 | 2.6 | 10.4 | 0.00 | 0.00 | 0.00 | 45 | 1016.8 |
| 20260505170704 | 72 | 292 | 2.6 | 10.4 | 0.00 | 0.00 | 0.00 | 42 | 1016.7 |
| 20260505170503 | 72 | 293 | 2.6 | 8.7 | 0.00 | 0.00 | 0.00 | 48 | 1016.8 |
| 20260505170204 | 72 | 295 | 1.7 | 7.8 | 0.00 | 0.00 | 0.00 | 50 | 1016.9 |
| 20260505165804 | 71 | 295 | 2.6 | 7.0 | 0.00 | 0.00 | 0.00 | 46 | 1016.9 |
| 20260505165704 | 71 | 300 | 2.6 | 7.0 | 0.00 | 0.00 | 0.00 | 50 | 1016.9 |
| 20260505165603 | 71 | 305 | 2.6 | 7.0 | 0.00 | 0.00 | 0.00 | 49 | 1016.9 |
| 20260505165504 | 70 | 303 | 2.6 | 7.0 | 0.00 | 0.00 | 0.00 | 45 | 1016.9 |
| 20260505165103 | 70 | 293 | 2.6 | 10.4 | 0.00 | 0.00 | 0.00 | 51 | 1016.9 |
| 20260505164704 | 70 | 284 | 2.6 | 10.4 | 0.00 | 0.00 | 0.00 | 49 | 1017.1 |
| 20260505164304 | 71 | 276 | 2.6 | 10.4 | 0.00 | 0.00 | 0.00 | 48 | 1017.0 |
| 20260505164204 | 71 | 277 | 2.6 | 10.4 | 0.00 | 0.00 | 0.00 | 47 | 1017.0 |
| 20260505164104 | 71 | 278 | 2.6 | 7.8 | 0.00 | 0.00 | 0.00 | 50 | 1017.0 |
| 20260505164004 | 71 | 281 | 2.6 | 7.8 | 0.00 | 0.00 | 0.00 | 54 | 1017.0 |
| 20260505163704 | 70 | 288 | 3.5 | 8.7 | 0.00 | 0.00 | 0.00 | 50 | 1016.9 |
| 20260505163404 | 70 | 289 | 4.3 | 8.7 | 0.00 | 0.00 | 0.00 | 50 | 1016.8 |
| 20260505163203 | 70 | 287 | 4.3 | 8.7 | 0.00 | 0.00 | 0.00 | 52 | 1016.8 |
| 20260505163104 | 70 | 285 | 3.5 | 8.7 | 0.00 | 0.00 | 0.00 | 50 | 1016.8 |
| 20260505162904 | 70 | 288 | 3.5 | 8.7 | 0.00 | 0.00 | 0.00 | 50 | 1016.8 |
| 20260505162803 | 70 | 290 | 3.5 | 8.7 | 0.00 | 0.00 | 0.00 | 54 | 1016.9 |
| 20260505162504 | 70 | 291 | 3.5 | 8.7 | 0.00 | 0.00 | 0.00 | 48 | 1016.8 |
| 20260505162306 | 70 | 290 | 2.6 | 7.8 | 0.00 | 0.00 | 0.00 | 50 | 1017.0 |
| 20260505162204 | 70 | 291 | 2.6 | 7.8 | 0.00 | 0.00 | 0.00 | 50 | 1016.9 |
| 20260505162104 | 70 | 293 | 2.6 | 8.7 | 0.00 | 0.00 | 0.00 | 51 | 1016.9 |
| 20260505162004 | 70 | 291 | 2.6 | 8.7 | 0.00 | 0.00 | 0.00 | 54 | 1016.9 |
| 20260505161704 | 70 | 290 | 1.7 | 8.7 | 0.00 | 0.00 | 0.00 | 48 | 1016.8 |
| 20260505161604 | 70 | 290 | 1.7 | 8.7 | 0.00 | 0.00 | 0.00 | 50 | 1016.8 |
| 20260505161504 | 70 | 290 | 1.7 | 8.7 | 0.00 | 0.00 | 0.00 | 50 | 1016.8 |
| 20260505161404 | 70 | 290 | 2.6 | 8.7 | 0.00 | 0.00 | 0.00 | 55 | 1016.9 |
| 20260505161204 | 70 | 292 | 1.7 | 8.7 | 0.00 | 0.00 | 0.00 | 58 | 1016.9 |
| 20260505161104 | 70 | 294 | 1.7 | 7.8 | 0.00 | 0.00 | 0.00 | 56 | 1016.9 |
| 20260505161004 | 70 | 295 | 2.6 | 7.8 | 0.00 | 0.00 | 0.00 | 52 | 1016.8 |
| 20260505160904 | 70 | 290 | 2.6 | 7.8 | 0.00 | 0.00 | 0.00 | 53 | 1016.9 |
| 20260505160803 | 70 | 288 | 1.7 | 8.7 | 0.00 | 0.00 | 0.00 | 52 | 1016.9 |
| 20260505160703 | 70 | 286 | 1.7 | 8.7 | 0.00 | 0.00 | 0.00 | 59 | 1016.9 |
| 20260505160504 | 69 | 286 | 1.7 | 8.7 | 0.00 | 0.00 | 0.00 | 53 | 1016.8 |
| 20260505160404 | 69 | 286 | 0.9 | 8.7 | 0.00 | 0.00 | 0.00 | 49 | 1016.9 |
| 20260505160303 | 69 | 286 | 0.9 | 8.7 | 0.00 | 0.00 | 0.00 | 52 | 1017.0 |
| 20260505160204 | 69 | 286 | 0.9 | 8.7 | 0.00 | 0.00 | 0.00 | 50 | 1016.9 |
| 20260505160104 | 69 | 288 | 0.9 | 8.7 | 0.00 | 0.00 | 0.00 | 48 | 1017.0 |
| 20260505152804 | 67 | 274 | 0.9 | 2.6 | 0.00 | 0.00 | 0.00 | 57 | 1017.4 |
| 20260505152605 | 67 | 271 | 0.9 | 5.2 | 0.00 | 0.00 | 0.00 | 54 | 1017.4 |
| 20260505152504 | 67 | 273 | 0.9 | 5.2 | 0.00 | 0.00 | 0.00 | 54 | 1017.4 |
| 20260505152305 | 67 | 285 | 0.9 | 6.1 | 0.00 | 0.00 | 0.00 | 59 | 1017.4 |
| 20260505152204 | 67 | 289 | 0.9 | 6.1 | 0.00 | 0.00 | 0.00 | 53 | 1017.4 |
| 20260505152104 | 67 | 292 | 0.9 | 6.1 | 0.00 | 0.00 | 0.00 | 55 | 1017.3 |
| 20260505151804 | 68 | 299 | 0.9 | 6.1 | 0.00 | 0.00 | 0.00 | 50 | 1017.3 |
| 20260505151204 | 68 | 320 | 0.0 | 5.2 | 0.00 | 0.00 | 0.00 | 54 | 1017.2 |
| 20260505150504 | 67 | 292 | 0.0 | 5.2 | 0.00 | 0.00 | 0.00 | 53 | 1017.2 |
| 20260505150405 | 67 | 301 | 0.0 | 5.2 | 0.00 | 0.00 | 0.00 | 53 | 1017.3 |
| 20260505150204 | 67 | 17 | 0.0 | 2.6 | 0.00 | 0.00 | 0.00 | 60 | 1017.4 |
| 20260505150104 | 67 | 18 | 0.0 | 2.6 | 0.00 | 0.00 | 0.00 | 59 | 1017.4 |
| 20260505140604 | 65 | 292 | 0.0 | 1.7 | 0.00 | 0.00 | 0.00 | 59 | 1017.5 |
| 20260505140304 | 65 | 0 | 0.0 | 0.0 | 0.00 | 0.00 | 0.00 | 68 | 1017.6 |
| 20260505140105 | 65 | 0 | 0.0 | 0.0 | 0.00 | 0.00 | 0.00 | 67 | 1017.5 |
| 20260505125004 | 56 | 0 | 0.0 | 0.0 | 0.00 | 0.00 | 0.00 | 75 | 1016.8 |
| 20260505124804 | 56 | 0 | 0.0 | 0.0 | 0.00 | 0.00 | 0.00 | 74 | 1016.8 |
| 20260505124704 | 56 | 0 | 0.0 | 0.0 | 0.00 | 0.00 | 0.00 | 76 | 1016.8 |
| 20260505124403 | 56 | 0 | 0.0 | 0.0 | 0.00 | 0.00 | 0.00 | 77 | 1016.7 |
| 20260505124304 | 55 | 0 | 0.0 | 0.0 | 0.00 | 0.00 | 0.00 | 77 | 1016.7 |
| 20260505124203 | 55 | 0 | 0.0 | 0.0 | 0.00 | 0.00 | 0.00 | 76 | 1016.7 |
| 20260505123904 | 55 | 0 | 0.0 | 0.0 | 0.00 | 0.00 | 0.00 | 76 | 1016.7 |
| 20260505123603 | 55 | 0 | 0.0 | 0.0 | 0.00 | 0.00 | 0.00 | 76 | 1016.7 |
| 20260505123404 | 54 | 0 | 0.0 | 0.0 | 0.00 | 0.00 | 0.00 | 77 | 1016.7 |
| 20260505123304 | 54 | 0 | 0.0 | 0.0 | 0.00 | 0.00 | 0.00 | 77 | 1016.7 |
| 20260505123104 | 54 | 0 | 0.0 | 0.0 | 0.00 | 0.00 | 0.00 | 77 | 1016.6 |
| 20260505123004 | 54 | 0 | 0.0 | 0.0 | 0.00 | 0.00 | 0.00 | 78 | 1016.6 |
| 20260505122904 | 54 | 0 | 0.0 | 0.0 | 0.00 | 0.00 | 0.00 | 78 | 1016.5 |
| 20260505122804 | 53 | 0 | 0.0 | 0.0 | 0.00 | 0.00 | 0.00 | 78 | 1016.6 |
| 20260505122703 | 53 | 0 | 0.0 | 0.0 | 0.00 | 0.00 | 0.00 | 77 | 1016.6 |
| 20260505122604 | 53 | 0 | 0.0 | 0.0 | 0.00 | 0.00 | 0.00 | 77 | 1016.6 |
| 20260505122504 | 53 | 0 | 0.0 | 0.0 | 0.00 | 0.00 | 0.00 | 77 | 1016.5 |
| 20260505122306 | 53 | 0 | 0.0 | 0.0 | 0.00 | 0.00 | 0.00 | 77 | 1016.6 |
| 20260505122204 | 53 | 0 | 0.0 | 0.0 | 0.00 | 0.00 | 0.00 | 77 | 1016.6 |
| 20260505122104 | 53 | 0 | 0.0 | 0.0 | 0.00 | 0.00 | 0.00 | 77 | 1016.6 |
| 20260505122004 | 53 | 0 | 0.0 | 0.0 | 0.00 | 0.00 | 0.00 | 78 | 1016.6 |
| 20260505121904 | 53 | 0 | 0.0 | 0.0 | 0.00 | 0.00 | 0.00 | 78 | 1016.6 |
| 20260505121804 | 53 | 0 | 0.0 | 0.0 | 0.00 | 0.00 | 0.00 | 78 | 1016.6 |
| 20260505121704 | 52 | 0 | 0.0 | 0.0 | 0.00 | 0.00 | 0.00 | 78 | 1016.6 |
| 20260505121503 | 52 | 0 | 0.0 | 0.0 | 0.00 | 0.00 | 0.00 | 78 | 1016.6 |
| 20260505121404 | 52 | 0 | 0.0 | 0.0 | 0.00 | 0.00 | 0.00 | 78 | 1016.6 |
| 20260505121304 | 52 | 0 | 0.0 | 0.0 | 0.00 | 0.00 | 0.00 | 78 | 1016.6 |
| 20260505121204 | 52 | 0 | 0.0 | 0.0 | 0.00 | 0.00 | 0.00 | 78 | 1016.6 |
| 20260505120904 | 52 | 0 | 0.0 | 0.0 | 0.00 | 0.00 | 0.00 | 78 | 1016.6 |
| 20260505120604 | 52 | 0 | 0.0 | 0.0 | 0.00 | 0.00 | 0.00 | 79 | 1016.6 |
| 20260505120204 | 52 | 0 | 0.0 | 0.0 | 0.00 | 0.00 | 0.00 | 78 | 1016.7 |
| 20260505115904 | 52 | 0 | 0.0 | 0.0 | 0.00 | 0.00 | 0.00 | 78 | 1016.4 |
| 20260505115404 | 51 | 0 | 0.0 | 0.0 | 0.00 | 0.00 | 0.00 | 79 | 1016.4 |
| 20260505115305 | 51 | 0 | 0.0 | 0.0 | 0.00 | 0.00 | 0.00 | 79 | 1016.4 |
| 20260505115004 | 51 | 0 | 0.0 | 0.0 | 0.00 | 0.00 | 0.00 | 79 | 1016.3 |
| 20260505114904 | 51 | 0 | 0.0 | 0.0 | 0.00 | 0.00 | 0.00 | 79 | 1016.2 |
| 20260505114804 | 51 | 0 | 0.0 | 0.0 | 0.00 | 0.00 | 0.00 | 79 | 1016.2 |
| 20260505114704 | 51 | 0 | 0.0 | 0.0 | 0.00 | 0.00 | 0.00 | 79 | 1016.1 |
| 20260505114304 | 51 | 0 | 0.0 | 0.0 | 0.00 | 0.00 | 0.00 | 79 | 1016.2 |
| 20260505114103 | 51 | 0 | 0.0 | 0.0 | 0.00 | 0.00 | 0.00 | 79 | 1016.1 |
| 20260505114004 | 51 | 0 | 0.0 | 0.0 | 0.00 | 0.00 | 0.00 | 79 | 1016.2 |
| 20260505113904 | 51 | 0 | 0.0 | 0.0 | 0.00 | 0.00 | 0.00 | 79 | 1016.1 |
| 20260505113504 | 51 | 0 | 0.0 | 0.0 | 0.00 | 0.00 | 0.00 | 80 | 1016.1 |
| 20260505113304 | 51 | 0 | 0.0 | 0.0 | 0.00 | 0.00 | 0.00 | 80 | 1016.1 |
| 20260505113204 | 50 | 0 | 0.0 | 0.0 | 0.00 | 0.00 | 0.00 | 80 | 1016.1 |
| 20260505113005 | 50 | 0 | 0.0 | 0.0 | 0.00 | 0.00 | 0.00 | 81 | 1016.2 |
| 20260505112804 | 51 | 0 | 0.0 | 0.0 | 0.00 | 0.00 | 0.00 | 80 | 1016.1 |
| 20260505112404 | 50 | 0 | 0.0 | 0.0 | 0.00 | 0.00 | 0.00 | 82 | 1016.1 |
| 20260505112104 | 50 | 0 | 0.0 | 0.0 | 0.00 | 0.00 | 0.00 | 82 | 1016.2 |
| 20260505111803 | 50 | 0 | 0.0 | 0.0 | 0.00 | 0.00 | 0.00 | 79 | 1016.0 |
| 20260505111704 | 50 | 0 | 0.0 | 0.0 | 0.00 | 0.00 | 0.00 | 79 | 1016.0 |
| 20260505111604 | 50 | 0 | 0.0 | 0.0 | 0.00 | 0.00 | 0.00 | 79 | 1016.0 |
| 20260505110904 | 50 | 0 | 0.0 | 0.0 | 0.00 | 0.00 | 0.00 | 79 | 1015.8 |
| 20260505110304 | 51 | 0 | 0.0 | 0.0 | 0.00 | 0.00 | 0.00 | 78 | 1015.6 |
| 20260505110203 | 51 | 0 | 0.0 | 0.0 | 0.00 | 0.00 | 0.00 | 78 | 1015.6 |
| 20260505110104 | 51 | 0 | 0.0 | 0.0 | 0.00 | 0.00 | 0.00 | 77 | 1015.7 |
| 20260505102104 | 51 | 0 | 0.0 | 0.0 | 0.00 | 0.00 | 0.00 | 78 | 1015.9 |
| 20260505102004 | 51 | 0 | 0.0 | 0.0 | 0.00 | 0.00 | 0.00 | 78 | 1015.9 |
| 20260505101905 | 51 | 0 | 0.0 | 0.0 | 0.00 | 0.00 | 0.00 | 78 | 1015.9 |
| 20260505101604 | 51 | 0 | 0.0 | 0.0 | 0.00 | 0.00 | 0.00 | 77 | 1015.9 |
| 20260505101004 | 51 | 0 | 0.0 | 0.0 | 0.00 | 0.00 | 0.00 | 75 | 1015.7 |
| 20260505100904 | 51 | 0 | 0.0 | 0.0 | 0.00 | 0.00 | 0.00 | 75 | 1015.7 |
| 20260505100804 | 51 | 0 | 0.0 | 0.0 | 0.00 | 0.00 | 0.00 | 76 | 1015.7 |
| 20260505100704 | 51 | 0 | 0.0 | 0.0 | 0.00 | 0.00 | 0.00 | 76 | 1015.7 |
| 20260505100604 | 51 | 0 | 0.0 | 0.0 | 0.00 | 0.00 | 0.00 | 76 | 1015.7 |
| 20260505100504 | 51 | 0 | 0.0 | 0.0 | 0.00 | 0.00 | 0.00 | 75 | 1015.7 |
| 20260505100304 | 52 | 0 | 0.0 | 0.0 | 0.00 | 0.00 | 0.00 | 75 | 1015.7 |
| 20260505100204 | 52 | 0 | 0.0 | 0.0 | 0.00 | 0.00 | 0.00 | 75 | 1015.8 |
| 20260505100004 | 51 | 0 | 0.0 | 0.0 | 0.00 | 0.00 | 0.00 | 76 | 1015.8 |
| 20260505095603 | 51 | 0 | 0.0 | 0.0 | 0.00 | 0.00 | 0.00 | 76 | 1015.8 |
| 20260505095305 | 52 | 0 | 0.0 | 0.0 | 0.00 | 0.00 | 0.00 | 75 | 1015.8 |
| 20260505095004 | 52 | 0 | 0.0 | 0.0 | 0.00 | 0.00 | 0.00 | 75 | 1015.9 |
| 20260505094903 | 52 | 0 | 0.0 | 0.0 | 0.00 | 0.00 | 0.00 | 75 | 1015.9 |
| 20260505094803 | 52 | 0 | 0.0 | 0.0 | 0.00 | 0.00 | 0.00 | 74 | 1015.9 |
| 20260505094705 | 52 | 0 | 0.0 | 0.0 | 0.00 | 0.00 | 0.00 | 74 | 1015.9 |
| 20260505094304 | 52 | 0 | 0.0 | 0.0 | 0.00 | 0.00 | 0.00 | 73 | 1015.8 |
| 20260505094204 | 52 | 0 | 0.0 | 0.0 | 0.00 | 0.00 | 0.00 | 73 | 1015.9 |
| 20260505094004 | 52 | 0 | 0.0 | 0.0 | 0.00 | 0.00 | 0.00 | 74 | 1015.9 |
| 20260505093604 | 52 | 0 | 0.0 | 0.0 | 0.00 | 0.00 | 0.00 | 74 | 1015.9 |
| 20260505093304 | 52 | 0 | 0.0 | 0.0 | 0.00 | 0.00 | 0.00 | 73 | 1015.9 |
| 20260505093205 | 53 | 0 | 0.0 | 0.0 | 0.00 | 0.00 | 0.00 | 72 | 1015.8 |
| 20260505093103 | 53 | 0 | 0.0 | 0.0 | 0.00 | 0.00 | 0.00 | 72 | 1015.8 |
| 20260505093004 | 53 | 0 | 0.0 | 0.0 | 0.00 | 0.00 | 0.00 | 72 | 1015.9 |
| 20260505092904 | 53 | 0 | 0.0 | 0.0 | 0.00 | 0.00 | 0.00 | 72 | 1015.8 |
| 20260505092804 | 53 | 0 | 0.0 | 0.0 | 0.00 | 0.00 | 0.00 | 72 | 1015.9 |
| 20260505092604 | 53 | 0 | 0.0 | 0.0 | 0.00 | 0.00 | 0.00 | 71 | 1015.9 |
| 20260505092504 | 53 | 0 | 0.0 | 0.0 | 0.00 | 0.00 | 0.00 | 72 | 1015.9 |
| 20260505092404 | 53 | 0 | 0.0 | 0.0 | 0.00 | 0.00 | 0.00 | 72 | 1015.9 |
| 20260505092305 | 53 | 0 | 0.0 | 0.0 | 0.00 | 0.00 | 0.00 | 72 | 1015.9 |
| 20260505092104 | 53 | 0 | 0.0 | 0.0 | 0.00 | 0.00 | 0.00 | 72 | 1016.0 |
| 20260505091803 | 53 | 0 | 0.0 | 0.0 | 0.00 | 0.00 | 0.00 | 72 | 1016.0 |
| 20260505091604 | 53 | 0 | 0.0 | 0.0 | 0.00 | 0.00 | 0.00 | 72 | 1016.0 |
| 20260505091304 | 53 | 0 | 0.0 | 0.0 | 0.00 | 0.00 | 0.00 | 73 | 1016.0 |
| 20260505090904 | 53 | 0 | 0.0 | 0.0 | 0.00 | 0.00 | 0.00 | 73 | 1016.1 |
| 20260505090704 | 53 | 0 | 0.0 | 0.0 | 0.00 | 0.00 | 0.00 | 73 | 1016.1 |
| 20260505090604 | 53 | 0 | 0.0 | 0.0 | 0.00 | 0.00 | 0.00 | 74 | 1016.2 |
| 20260505090404 | 52 | 0 | 0.0 | 0.0 | 0.00 | 0.00 | 0.00 | 74 | 1016.2 |
| 20260505090104 | 52 | 0 | 0.0 | 0.0 | 0.00 | 0.00 | 0.00 | 74 | 1016.0 |
| 20260505090004 | 52 | 0 | 0.0 | 0.0 | 0.00 | 0.00 | 0.00 | 75 | 1016.0 |
| 20260505085804 | 52 | 0 | 0.0 | 0.0 | 0.00 | 0.00 | 0.00 | 75 | 1015.9 |
| 20260505085704 | 52 | 0 | 0.0 | 0.0 | 0.00 | 0.00 | 0.00 | 75 | 1015.9 |
| 20260505085503 | 52 | 0 | 0.0 | 0.0 | 0.00 | 0.00 | 0.00 | 76 | 1015.9 |
| 20260505085404 | 52 | 0 | 0.0 | 0.0 | 0.00 | 0.00 | 0.00 | 75 | 1015.9 |
| 20260505085305 | 52 | 0 | 0.0 | 0.0 | 0.00 | 0.00 | 0.00 | 75 | 1016.0 |
| 20260505085203 | 52 | 0 | 0.0 | 0.0 | 0.00 | 0.00 | 0.00 | 75 | 1016.0 |
| 20260505084904 | 52 | 0 | 0.0 | 0.0 | 0.00 | 0.00 | 0.00 | 74 | 1015.9 |
| 20260505084804 | 52 | 0 | 0.0 | 0.0 | 0.00 | 0.00 | 0.00 | 74 | 1015.9 |
| 20260505084503 | 52 | 0 | 0.0 | 0.0 | 0.00 | 0.00 | 0.00 | 73 | 1016.0 |
| 20260505083904 | 53 | 0 | 0.0 | 0.0 | 0.00 | 0.00 | 0.00 | 73 | 1016.0 |
| 20260505083805 | 53 | 0 | 0.0 | 0.0 | 0.00 | 0.00 | 0.00 | 72 | 1016.0 |
| 20260505083504 | 53 | 0 | 0.0 | 0.0 | 0.00 | 0.00 | 0.00 | 72 | 1016.0 |
| 20260505083204 | 53 | 0 | 0.0 | 0.0 | 0.00 | 0.00 | 0.00 | 72 | 1016.1 |
| 20260505083105 | 54 | 0 | 0.0 | 0.0 | 0.00 | 0.00 | 0.00 | 72 | 1016.1 |
| 20260505082904 | 54 | 0 | 0.0 | 0.0 | 0.00 | 0.00 | 0.00 | 71 | 1015.9 |
| 20260505082704 | 54 | 0 | 0.0 | 0.0 | 0.00 | 0.00 | 0.00 | 71 | 1016.0 |
| 20260505082603 | 54 | 0 | 0.0 | 0.0 | 0.00 | 0.00 | 0.00 | 71 | 1016.1 |
| 20260505082504 | 54 | 0 | 0.0 | 0.0 | 0.00 | 0.00 | 0.00 | 71 | 1016.1 |
| 20260505081704 | 54 | 0 | 0.0 | 0.0 | 0.00 | 0.00 | 0.00 | 71 | 1016.0 |
| 20260505081603 | 54 | 0 | 0.0 | 0.0 | 0.00 | 0.00 | 0.00 | 71 | 1016.1 |
| 20260505081504 | 54 | 0 | 0.0 | 0.0 | 0.00 | 0.00 | 0.00 | 71 | 1016.1 |
| 20260505081204 | 54 | 0 | 0.0 | 0.0 | 0.00 | 0.00 | 0.00 | 72 | 1016.2 |
| 20260505081104 | 53 | 0 | 0.0 | 0.0 | 0.00 | 0.00 | 0.00 | 72 | 1016.2 |
| 20260505080904 | 53 | 0 | 0.0 | 0.0 | 0.00 | 0.00 | 0.00 | 72 | 1016.2 |
| 20260505080804 | 54 | 0 | 0.0 | 0.0 | 0.00 | 0.00 | 0.00 | 71 | 1016.1 |
| 20260505080704 | 54 | 0 | 0.0 | 0.0 | 0.00 | 0.00 | 0.00 | 71 | 1016.1 |
| 20260505080403 | 54 | 0 | 0.0 | 0.0 | 0.00 | 0.00 | 0.00 | 71 | 1016.1 |
| 20260505080304 | 54 | 0 | 0.0 | 0.0 | 0.00 | 0.00 | 0.00 | 71 | 1016.2 |
| 20260505080204 | 54 | 0 | 0.0 | 0.0 | 0.00 | 0.00 | 0.00 | 71 | 1016.2 |
| 20260505080004 | 54 | 0 | 0.0 | 0.0 | 0.00 | 0.00 | 0.00 | 71 | 1016.0 |
| 20260505075903 | 54 | 0 | 0.0 | 0.0 | 0.00 | 0.00 | 0.00 | 71 | 1016.0 |
| 20260505075804 | 54 | 0 | 0.0 | 0.0 | 0.00 | 0.00 | 0.00 | 71 | 1016.0 |
| 20260505075704 | 54 | 0 | 0.0 | 0.0 | 0.00 | 0.00 | 0.00 | 71 | 1016.0 |
| 20260505075604 | 54 | 0 | 0.0 | 0.0 | 0.00 | 0.00 | 0.00 | 71 | 1016.0 |
| 20260505075503 | 54 | 0 | 0.0 | 0.0 | 0.00 | 0.00 | 0.00 | 70 | 1016.0 |
| 20260505075304 | 54 | 0 | 0.0 | 0.0 | 0.00 | 0.00 | 0.00 | 69 | 1016.0 |
| 20260505075103 | 55 | 0 | 0.0 | 0.0 | 0.00 | 0.00 | 0.00 | 69 | 1016.0 |
| 20260505074904 | 55 | 0 | 0.0 | 0.0 | 0.00 | 0.00 | 0.00 | 69 | 1016.0 |
| 20260505074803 | 55 | 0 | 0.0 | 0.0 | 0.00 | 0.00 | 0.00 | 69 | 1016.1 |
| 20260505074404 | 55 | 0 | 0.0 | 0.0 | 0.00 | 0.00 | 0.00 | 69 | 1016.0 |
| 20260505074203 | 55 | 0 | 0.0 | 0.0 | 0.00 | 0.00 | 0.00 | 69 | 1016.0 |
| 20260505074004 | 55 | 0 | 0.0 | 0.0 | 0.00 | 0.00 | 0.00 | 68 | 1016.0 |
| 20260505073904 | 55 | 0 | 0.0 | 0.0 | 0.00 | 0.00 | 0.00 | 68 | 1016.0 |
| 20260505073703 | 55 | 0 | 0.0 | 0.0 | 0.00 | 0.00 | 0.00 | 68 | 1016.0 |
| 20260505073604 | 55 | 0 | 0.0 | 0.0 | 0.00 | 0.00 | 0.00 | 68 | 1016.1 |
| 20260505073304 | 55 | 0 | 0.0 | 0.0 | 0.00 | 0.00 | 0.00 | 67 | 1016.1 |
| 20260505073104 | 56 | 0 | 0.0 | 0.0 | 0.00 | 0.00 | 0.00 | 67 | 1016.0 |
| 20260505072804 | 56 | 0 | 0.0 | 0.0 | 0.00 | 0.00 | 0.00 | 67 | 1016.0 |
| 20260505072604 | 56 | 0 | 0.0 | 0.0 | 0.00 | 0.00 | 0.00 | 67 | 1016.0 |
| 20260505072504 | 56 | 0 | 0.0 | 0.0 | 0.00 | 0.00 | 0.00 | 67 | 1016.0 |
| 20260505072404 | 56 | 0 | 0.0 | 0.0 | 0.00 | 0.00 | 0.00 | 67 | 1016.1 |
| 20260505071904 | 56 | 0 | 0.0 | 0.0 | 0.00 | 0.00 | 0.00 | 67 | 1016.1 |
| 20260505071604 | 56 | 0 | 0.0 | 0.0 | 0.00 | 0.00 | 0.00 | 67 | 1016.1 |
| 20260505071404 | 56 | 0 | 0.0 | 0.0 | 0.00 | 0.00 | 0.00 | 67 | 1016.0 |
| 20260505071204 | 56 | 0 | 0.0 | 0.0 | 0.00 | 0.00 | 0.00 | 68 | 1016.0 |
| 20260505071007 | 55 | 0 | 0.0 | 0.0 | 0.00 | 0.00 | 0.00 | 68 | 1016.0 |
| 20260505070704 | 56 | 0 | 0.0 | 0.0 | 0.00 | 0.00 | 0.00 | 67 | 1016.0 |
| 20260505070404 | 55 | 0 | 0.0 | 0.0 | 0.00 | 0.00 | 0.00 | 69 | 1016.0 |
| 20260505070304 | 55 | 0 | 0.0 | 0.0 | 0.00 | 0.00 | 0.00 | 69 | 1016.0 |
| 20260505070203 | 55 | 0 | 0.0 | 0.0 | 0.00 | 0.00 | 0.00 | 69 | 1016.0 |
| 20260505070004 | 55 | 0 | 0.0 | 0.0 | 0.00 | 0.00 | 0.00 | 69 | 1016.0 |
| 20260505065304 | 55 | 0 | 0.0 | 0.0 | 0.00 | 0.00 | 0.00 | 69 | 1016.1 |
| 20260505064804 | 55 | 0 | 0.0 | 0.0 | 0.00 | 0.00 | 0.00 | 68 | 1016.0 |
| 20260505064704 | 55 | 0 | 0.0 | 0.0 | 0.00 | 0.00 | 0.00 | 68 | 1016.0 |
| 20260505064304 | 55 | 0 | 0.0 | 0.0 | 0.00 | 0.00 | 0.00 | 68 | 1016.0 |
| 20260505064204 | 56 | 0 | 0.0 | 0.0 | 0.00 | 0.00 | 0.00 | 68 | 1015.9 |
| 20260505063903 | 55 | 0 | 0.0 | 0.0 | 0.00 | 0.00 | 0.00 | 68 | 1015.9 |
| 20260505063804 | 55 | 0 | 0.0 | 0.0 | 0.00 | 0.00 | 0.00 | 69 | 1015.9 |
| 20260505063704 | 55 | 0 | 0.0 | 0.0 | 0.00 | 0.00 | 0.00 | 69 | 1015.9 |
| 20260505063403 | 55 | 0 | 0.0 | 0.0 | 0.00 | 0.00 | 0.00 | 69 | 1016.0 |
| 20260505062804 | 55 | 0 | 0.0 | 0.0 | 0.00 | 0.00 | 0.00 | 69 | 1016.0 |
| 20260505062504 | 55 | 0 | 0.0 | 0.0 | 0.00 | 0.00 | 0.00 | 70 | 1016.1 |
| 20260505062404 | 55 | 0 | 0.0 | 0.0 | 0.00 | 0.00 | 0.00 | 70 | 1016.1 |
| 20260505062304 | 55 | 0 | 0.0 | 0.0 | 0.00 | 0.00 | 0.00 | 70 | 1016.1 |
| 20260505062204 | 55 | 0 | 0.0 | 0.0 | 0.00 | 0.00 | 0.00 | 70 | 1016.2 |
| 20260505061704 | 55 | 0 | 0.0 | 0.0 | 0.00 | 0.00 | 0.00 | 70 | 1016.1 |
| 20260505061604 | 55 | 0 | 0.0 | 0.0 | 0.00 | 0.00 | 0.00 | 71 | 1016.1 |
| 20260505061504 | 54 | 0 | 0.0 | 0.0 | 0.00 | 0.00 | 0.00 | 71 | 1016.1 |
| 20260505061404 | 54 | 0 | 0.0 | 0.0 | 0.00 | 0.00 | 0.00 | 71 | 1016.1 |
| 20260505061304 | 54 | 0 | 0.0 | 0.0 | 0.00 | 0.00 | 0.00 | 72 | 1016.1 |
| 20260505061203 | 54 | 0 | 0.0 | 0.0 | 0.00 | 0.00 | 0.00 | 71 | 1016.2 |
| 20260505060904 | 54 | 0 | 0.0 | 0.0 | 0.00 | 0.00 | 0.00 | 71 | 1016.3 |
| 20260505060803 | 54 | 0 | 0.0 | 0.0 | 0.00 | 0.00 | 0.00 | 71 | 1016.2 |
| 20260505060704 | 55 | 0 | 0.0 | 0.0 | 0.00 | 0.00 | 0.00 | 71 | 1016.2 |
| 20260505060304 | 54 | 0 | 0.0 | 0.0 | 0.00 | 0.00 | 0.00 | 72 | 1016.3 |
| 20260505060104 | 54 | 0 | 0.0 | 0.0 | 0.00 | 0.00 | 0.00 | 72 | 1016.3 |
| 20260505055804 | 54 | 0 | 0.0 | 0.0 | 0.00 | 0.00 | 0.00 | 71 | 1016.1 |
| 20260505055704 | 55 | 0 | 0.0 | 0.0 | 0.00 | 0.00 | 0.00 | 71 | 1016.1 |
| 20260505055604 | 55 | 0 | 0.0 | 0.0 | 0.00 | 0.00 | 0.00 | 72 | 1016.1 |
| 20260505055204 | 54 | 0 | 0.0 | 0.0 | 0.00 | 0.00 | 0.00 | 72 | 1016.2 |
| 20260505055104 | 55 | 0 | 0.0 | 0.0 | 0.00 | 0.00 | 0.00 | 72 | 1016.2 |
| 20260505055004 | 55 | 0 | 0.0 | 0.0 | 0.00 | 0.00 | 0.00 | 71 | 1016.2 |
| 20260505054904 | 55 | 0 | 0.0 | 0.0 | 0.00 | 0.00 | 0.00 | 72 | 1016.2 |
| 20260505054704 | 55 | 0 | 0.0 | 0.0 | 0.00 | 0.00 | 0.00 | 71 | 1016.2 |
| 20260505054604 | 55 | 0 | 0.0 | 0.0 | 0.00 | 0.00 | 0.00 | 71 | 1016.3 |
| 20260505054504 | 55 | 0 | 0.0 | 0.0 | 0.00 | 0.00 | 0.00 | 71 | 1016.3 |
| 20260505054404 | 55 | 0 | 0.0 | 0.0 | 0.00 | 0.00 | 0.00 | 71 | 1016.2 |
| 20260505054304 | 55 | 0 | 0.0 | 0.0 | 0.00 | 0.00 | 0.00 | 71 | 1016.3 |
| 20260505053904 | 55 | 0 | 0.0 | 0.0 | 0.00 | 0.00 | 0.00 | 71 | 1016.3 |
| 20260505053804 | 55 | 0 | 0.0 | 0.0 | 0.00 | 0.00 | 0.00 | 71 | 1016.3 |
| 20260505053504 | 55 | 0 | 0.0 | 0.0 | 0.00 | 0.00 | 0.00 | 71 | 1016.3 |
| 20260505053303 | 55 | 0 | 0.0 | 0.0 | 0.00 | 0.00 | 0.00 | 71 | 1016.3 |
| 20260505052904 | 55 | 0 | 0.0 | 0.0 | 0.00 | 0.00 | 0.00 | 71 | 1016.3 |
| 20260505052404 | 55 | 0 | 0.0 | 0.0 | 0.00 | 0.00 | 0.00 | 71 | 1016.2 |
| 20260505052304 | 55 | 0 | 0.0 | 0.0 | 0.00 | 0.00 | 0.00 | 71 | 1016.3 |
| 20260505052004 | 55 | 0 | 0.0 | 0.0 | 0.00 | 0.00 | 0.00 | 71 | 1016.2 |
| 20260505051903 | 55 | 0 | 0.0 | 0.0 | 0.00 | 0.00 | 0.00 | 71 | 1016.2 |
| 20260505051704 | 55 | 0 | 0.0 | 0.0 | 0.00 | 0.00 | 0.00 | 71 | 1016.2 |
| 20260505051603 | 55 | 0 | 0.0 | 0.0 | 0.00 | 0.00 | 0.00 | 71 | 1016.2 |
| 20260505051204 | 55 | 0 | 0.0 | 0.0 | 0.00 | 0.00 | 0.00 | 71 | 1016.2 |
| 20260505051104 | 55 | 0 | 0.0 | 0.0 | 0.00 | 0.00 | 0.00 | 71 | 1016.2 |
| 20260505050905 | 55 | 0 | 0.0 | 0.0 | 0.00 | 0.00 | 0.00 | 71 | 1016.2 |
| 20260505050804 | 55 | 0 | 0.0 | 0.0 | 0.00 | 0.00 | 0.00 | 71 | 1016.2 |
| 20260505050604 | 55 | 0 | 0.0 | 0.0 | 0.00 | 0.00 | 0.00 | 71 | 1016.2 |
| 20260505050303 | 55 | 0 | 0.0 | 0.0 | 0.00 | 0.00 | 0.00 | 71 | 1016.2 |
| 20260505041704 | 57 | 0 | 0.0 | 0.0 | 0.00 | 0.00 | 0.00 | 68 | 1016.3 |
| 20260505041604 | 57 | 0 | 0.0 | 0.0 | 0.00 | 0.00 | 0.00 | 69 | 1016.2 |
| 20260505041404 | 56 | 0 | 0.0 | 0.0 | 0.00 | 0.00 | 0.00 | 69 | 1016.3 |
| 20260505041104 | 56 | 0 | 0.0 | 0.0 | 0.00 | 0.00 | 0.00 | 70 | 1016.3 |
| 20260505041003 | 56 | 0 | 0.0 | 0.0 | 0.00 | 0.00 | 0.00 | 70 | 1016.3 |
| 20260505040904 | 56 | 0 | 0.0 | 0.0 | 0.00 | 0.00 | 0.00 | 69 | 1016.3 |
| 20260505040104 | 57 | 0 | 0.0 | 0.0 | 0.00 | 0.00 | 0.00 | 69 | 1016.2 |
| 20260505040005 | 57 | 0 | 0.0 | 0.0 | 0.00 | 0.00 | 0.00 | 69 | 1016.2 |
| 20260505035704 | 57 | 0 | 0.0 | 0.0 | 0.00 | 0.00 | 0.00 | 68 | 1016.2 |
| 20260505035503 | 57 | 0 | 0.0 | 0.0 | 0.00 | 0.00 | 0.00 | 68 | 1016.2 |
| 20260505035203 | 57 | 0 | 0.0 | 0.0 | 0.00 | 0.00 | 0.00 | 69 | 1016.2 |
| 20260505035103 | 57 | 0 | 0.0 | 0.0 | 0.00 | 0.00 | 0.00 | 69 | 1016.2 |
| 20260505035004 | 57 | 0 | 0.0 | 0.0 | 0.00 | 0.00 | 0.00 | 69 | 1016.2 |
| 20260505034904 | 57 | 0 | 0.0 | 0.0 | 0.00 | 0.00 | 0.00 | 68 | 1016.3 |
| 20260505034803 | 57 | 0 | 0.0 | 0.0 | 0.00 | 0.00 | 0.00 | 69 | 1016.3 |
| 20260505034704 | 57 | 0 | 0.0 | 0.0 | 0.00 | 0.00 | 0.00 | 68 | 1016.3 |
| 20260505034504 | 57 | 0 | 0.0 | 0.0 | 0.00 | 0.00 | 0.00 | 68 | 1016.3 |
| 20260505034304 | 57 | 0 | 0.0 | 0.0 | 0.00 | 0.00 | 0.00 | 69 | 1016.3 |
| 20260505034204 | 57 | 0 | 0.0 | 0.0 | 0.00 | 0.00 | 0.00 | 69 | 1016.3 |
| 20260505034103 | 57 | 0 | 0.0 | 0.0 | 0.00 | 0.00 | 0.00 | 69 | 1016.3 |
| 20260505034003 | 57 | 0 | 0.0 | 0.0 | 0.00 | 0.00 | 0.00 | 69 | 1016.3 |
| 20260505033604 | 57 | 0 | 0.0 | 0.0 | 0.00 | 0.00 | 0.00 | 68 | 1016.3 |
| 20260505033104 | 57 | 0 | 0.0 | 0.0 | 0.00 | 0.00 | 0.00 | 68 | 1016.4 |
| 20260505032704 | 58 | 0 | 0.0 | 0.0 | 0.00 | 0.00 | 0.00 | 67 | 1016.3 |
| 20260505032404 | 58 | 0 | 0.0 | 0.0 | 0.00 | 0.00 | 0.00 | 66 | 1016.3 |
| 20260505032204 | 58 | 0 | 0.0 | 0.0 | 0.00 | 0.00 | 0.00 | 65 | 1016.3 |
| 20260505031903 | 58 | 0 | 0.0 | 0.0 | 0.00 | 0.00 | 0.00 | 66 | 1016.3 |
| 20260505031704 | 58 | 0 | 0.0 | 0.0 | 0.00 | 0.00 | 0.00 | 66 | 1016.3 |
| 20260505031504 | 58 | 0 | 0.0 | 0.0 | 0.00 | 0.00 | 0.00 | 66 | 1016.3 |
| 20260505031404 | 58 | 0 | 0.0 | 0.0 | 0.00 | 0.00 | 0.00 | 67 | 1016.3 |
| 20260505031104 | 58 | 0 | 0.0 | 0.0 | 0.00 | 0.00 | 0.00 | 67 | 1016.3 |
| 20260505031004 | 58 | 0 | 0.0 | 0.0 | 0.00 | 0.00 | 0.00 | 67 | 1016.3 |
| 20260505030804 | 58 | 0 | 0.0 | 0.0 | 0.00 | 0.00 | 0.00 | 67 | 1016.3 |
| 20260505030504 | 58 | 0 | 0.0 | 0.0 | 0.00 | 0.00 | 0.00 | 68 | 1016.4 |
| 20260505030404 | 58 | 0 | 0.0 | 0.0 | 0.00 | 0.00 | 0.00 | 68 | 1016.3 |
| 20260505030304 | 58 | 0 | 0.0 | 0.0 | 0.00 | 0.00 | 0.00 | 68 | 1016.4 |
| 20260505030105 | 58 | 0 | 0.0 | 0.0 | 0.00 | 0.00 | 0.00 | 68 | 1016.3 |
| 20260505030004 | 58 | 0 | 0.0 | 0.0 | 0.00 | 0.00 | 0.00 | 67 | 1016.4 |
| 20260505025904 | 58 | 0 | 0.0 | 0.0 | 0.00 | 0.00 | 0.00 | 67 | 1016.4 |
| 20260505025803 | 58 | 0 | 0.0 | 0.0 | 0.00 | 0.00 | 0.00 | 68 | 1016.4 |
| 20260505025704 | 58 | 0 | 0.0 | 0.0 | 0.00 | 0.00 | 0.00 | 68 | 1016.4 |
| 20260505025504 | 58 | 0 | 0.0 | 0.0 | 0.00 | 0.00 | 0.00 | 68 | 1016.3 |
| 20260505025403 | 58 | 0 | 0.0 | 0.0 | 0.00 | 0.00 | 0.00 | 68 | 1016.4 |
| 20260505025305 | 58 | 0 | 0.0 | 0.0 | 0.00 | 0.00 | 0.00 | 68 | 1016.4 |
| 20260505025004 | 58 | 0 | 0.0 | 0.0 | 0.00 | 0.00 | 0.00 | 68 | 1016.3 |
| 20260505024803 | 58 | 0 | 0.0 | 0.0 | 0.00 | 0.00 | 0.00 | 68 | 1016.4 |
| 20260505024404 | 58 | 0 | 0.0 | 0.0 | 0.00 | 0.00 | 0.00 | 66 | 1016.3 |
| 20260505024304 | 59 | 0 | 0.0 | 0.0 | 0.00 | 0.00 | 0.00 | 66 | 1016.3 |
| 20260505024203 | 59 | 0 | 0.0 | 0.0 | 0.00 | 0.00 | 0.00 | 66 | 1016.3 |
| 20260505024104 | 59 | 0 | 0.0 | 0.0 | 0.00 | 0.00 | 0.00 | 66 | 1016.3 |
| 20260505024004 | 59 | 0 | 0.0 | 0.0 | 0.00 | 0.00 | 0.00 | 66 | 1016.4 |
| 20260505023804 | 59 | 0 | 0.0 | 0.0 | 0.00 | 0.00 | 0.00 | 65 | 1016.3 |
| 20260505023704 | 59 | 0 | 0.0 | 0.0 | 0.00 | 0.00 | 0.00 | 64 | 1016.2 |
| 20260505023204 | 59 | 0 | 0.0 | 0.0 | 0.00 | 0.00 | 0.00 | 65 | 1016.3 |
| 20260505023103 | 59 | 0 | 0.0 | 0.0 | 0.00 | 0.00 | 0.00 | 65 | 1016.3 |
| 20260505022904 | 59 | 0 | 0.0 | 0.0 | 0.00 | 0.00 | 0.00 | 65 | 1016.3 |
| 20260505022504 | 60 | 0 | 0.0 | 0.0 | 0.00 | 0.00 | 0.00 | 64 | 1016.2 |
| 20260505022304 | 60 | 0 | 0.0 | 0.0 | 0.00 | 0.00 | 0.00 | 64 | 1016.2 |
| 20260505022104 | 60 | 0 | 0.0 | 0.0 | 0.00 | 0.00 | 0.00 | 64 | 1016.1 |
| 20260505021904 | 60 | 0 | 0.0 | 0.0 | 0.00 | 0.00 | 0.00 | 64 | 1016.2 |
| 20260505021804 | 60 | 0 | 0.0 | 0.0 | 0.00 | 0.00 | 0.00 | 64 | 1016.2 |
| 20260505021703 | 60 | 0 | 0.0 | 0.0 | 0.00 | 0.00 | 0.00 | 64 | 1016.1 |
| 20260505021504 | 60 | 0 | 0.0 | 0.0 | 0.00 | 0.00 | 0.00 | 64 | 1016.2 |
| 20260505020804 | 60 | 0 | 0.0 | 0.0 | 0.00 | 0.00 | 0.00 | 65 | 1016.2 |
| 20260505020703 | 60 | 0 | 0.0 | 0.0 | 0.00 | 0.00 | 0.00 | 65 | 1016.2 |
| 20260505020604 | 60 | 0 | 0.0 | 0.0 | 0.00 | 0.00 | 0.00 | 65 | 1016.1 |
| 20260505020304 | 60 | 0 | 0.0 | 0.0 | 0.00 | 0.00 | 0.00 | 65 | 1016.1 |
| 20260505020204 | 60 | 0 | 0.0 | 0.0 | 0.00 | 0.00 | 0.00 | 65 | 1016.1 |
| 20260505020104 | 60 | 0 | 0.0 | 0.0 | 0.00 | 0.00 | 0.00 | 65 | 1016.1 |
| 20260505015304 | 60 | 0 | 0.0 | 0.0 | 0.00 | 0.00 | 0.00 | 64 | 1015.9 |
| 20260505015204 | 60 | 0 | 0.0 | 0.0 | 0.00 | 0.00 | 0.00 | 64 | 1016.0 |
| 20260505015103 | 60 | 0 | 0.0 | 0.0 | 0.00 | 0.00 | 0.00 | 64 | 1016.0 |
| 20260505014904 | 60 | 0 | 0.0 | 0.0 | 0.00 | 0.00 | 0.00 | 64 | 1016.0 |
| 20260505014804 | 60 | 0 | 0.0 | 0.0 | 0.00 | 0.00 | 0.00 | 63 | 1015.8 |
| 20260505014704 | 60 | 0 | 0.0 | 0.0 | 0.00 | 0.00 | 0.00 | 64 | 1015.9 |
| 20260505014604 | 60 | 0 | 0.0 | 0.0 | 0.00 | 0.00 | 0.00 | 64 | 1015.9 |
| 20260505014503 | 60 | 0 | 0.0 | 0.0 | 0.00 | 0.00 | 0.00 | 63 | 1015.9 |
| 20260505014404 | 60 | 0 | 0.0 | 0.0 | 0.00 | 0.00 | 0.00 | 64 | 1015.9 |
| 20260505014304 | 60 | 0 | 0.0 | 0.0 | 0.00 | 0.00 | 0.00 | 63 | 1015.8 |
| 20260505014203 | 60 | 0 | 0.0 | 0.0 | 0.00 | 0.00 | 0.00 | 63 | 1015.9 |
| 20260505014104 | 60 | 0 | 0.0 | 0.0 | 0.00 | 0.00 | 0.00 | 63 | 1015.8 |
| 20260505013803 | 61 | 0 | 0.0 | 0.0 | 0.00 | 0.00 | 0.00 | 63 | 1015.9 |
| 20260505013704 | 61 | 0 | 0.0 | 0.0 | 0.00 | 0.00 | 0.00 | 63 | 1015.8 |
| 20260505013504 | 61 | 0 | 0.0 | 0.0 | 0.00 | 0.00 | 0.00 | 63 | 1015.9 |
| 20260505013103 | 61 | 0 | 0.0 | 0.0 | 0.00 | 0.00 | 0.00 | 62 | 1015.9 |
| 20260505012804 | 61 | 0 | 0.0 | 0.0 | 0.00 | 0.00 | 0.00 | 62 | 1015.9 |
| 20260505012404 | 62 | 0 | 0.0 | 0.0 | 0.00 | 0.00 | 0.00 | 62 | 1015.8 |
| 20260505012304 | 62 | 0 | 0.0 | 0.0 | 0.00 | 0.00 | 0.00 | 61 | 1015.8 |
| 20260505012104 | 62 | 0 | 0.0 | 0.0 | 0.00 | 0.00 | 0.00 | 61 | 1015.8 |
| 20260505011904 | 62 | 0 | 0.0 | 0.0 | 0.00 | 0.00 | 0.00 | 61 | 1015.8 |
| 20260505011503 | 62 | 0 | 0.0 | 0.0 | 0.00 | 0.00 | 0.00 | 62 | 1015.8 |
| 20260505011104 | 62 | 0 | 0.0 | 0.0 | 0.00 | 0.00 | 0.00 | 63 | 1015.8 |
| 20260505010604 | 62 | 0 | 0.0 | 0.0 | 0.00 | 0.00 | 0.00 | 62 | 1015.8 |
| 20260505010504 | 62 | 0 | 0.0 | 0.0 | 0.00 | 0.00 | 0.00 | 62 | 1015.8 |
| 20260505010304 | 62 | 0 | 0.0 | 0.0 | 0.00 | 0.00 | 0.00 | 62 | 1015.7 |
| 20260505010104 | 62 | 0 | 0.0 | 0.0 | 0.00 | 0.00 | 0.00 | 62 | 1015.7 |
| 20260505010004 | 62 | 0 | 0.0 | 0.0 | 0.00 | 0.00 | 0.00 | 63 | 1015.5 |
| 20260505005804 | 62 | 0 | 0.0 | 0.0 | 0.00 | 0.00 | 0.00 | 63 | 1015.6 |
| 20260505005703 | 62 | 0 | 0.0 | 0.0 | 0.00 | 0.00 | 0.00 | 62 | 1015.5 |
| 20260505005604 | 62 | 0 | 0.0 | 0.0 | 0.00 | 0.00 | 0.00 | 62 | 1015.5 |
| 20260505005504 | 62 | 0 | 0.0 | 0.0 | 0.00 | 0.00 | 0.00 | 62 | 1015.5 |
| 20260505005203 | 62 | 0 | 0.0 | 0.0 | 0.00 | 0.00 | 0.00 | 63 | 1015.4 |
| 20260505005004 | 62 | 0 | 0.0 | 0.0 | 0.00 | 0.00 | 0.00 | 63 | 1015.4 |
| 20260505004704 | 62 | 0 | 0.0 | 0.0 | 0.00 | 0.00 | 0.00 | 63 | 1015.5 |
| 20260505004503 | 63 | 0 | 0.0 | 0.0 | 0.00 | 0.00 | 0.00 | 62 | 1015.5 |
| 20260505004403 | 63 | 0 | 0.0 | 0.0 | 0.00 | 0.00 | 0.00 | 62 | 1015.5 |
| 20260505004204 | 63 | 0 | 0.0 | 0.0 | 0.00 | 0.00 | 0.00 | 62 | 1015.5 |
| 20260505003903 | 63 | 0 | 0.0 | 0.0 | 0.00 | 0.00 | 0.00 | 63 | 1015.4 |
| 20260505003704 | 63 | 0 | 0.0 | 0.0 | 0.00 | 0.00 | 0.00 | 63 | 1015.4 |
| 20260505003603 | 63 | 0 | 0.0 | 0.0 | 0.00 | 0.00 | 0.00 | 63 | 1015.4 |
| 20260505003404 | 63 | 0 | 0.0 | 0.0 | 0.00 | 0.00 | 0.00 | 64 | 1015.3 |
| 20260505003004 | 64 | 0 | 0.0 | 0.0 | 0.00 | 0.00 | 0.00 | 64 | 1015.3 |
| 20260505002804 | 64 | 0 | 0.0 | 0.0 | 0.00 | 0.00 | 0.00 | 63 | 1015.3 |
| 20260505002603 | 64 | 0 | 0.0 | 0.0 | 0.00 | 0.00 | 0.00 | 63 | 1015.3 |
| 20260505002404 | 64 | 0 | 0.0 | 0.0 | 0.00 | 0.00 | 0.00 | 64 | 1015.3 |
| 20260505002204 | 64 | 0 | 0.0 | 0.0 | 0.00 | 0.00 | 0.00 | 64 | 1015.4 |
| 20260505002104 | 64 | 0 | 0.0 | 0.0 | 0.00 | 0.00 | 0.00 | 64 | 1015.4 |
| 20260505002004 | 64 | 0 | 0.0 | 0.0 | 0.00 | 0.00 | 0.00 | 62 | 1015.3 |
| 20260505001903 | 64 | 0 | 0.0 | 0.0 | 0.00 | 0.00 | 0.00 | 61 | 1015.2 |
| 20260505001804 | 65 | 0 | 0.0 | 0.0 | 0.00 | 0.00 | 0.00 | 61 | 1015.3 |
| 20260505001504 | 65 | 0 | 0.0 | 0.0 | 0.00 | 0.00 | 0.00 | 61 | 1015.2 |
| 20260505000904 | 66 | 0 | 0.0 | 0.0 | 0.00 | 0.00 | 0.00 | 64 | 1015.3 |
| 20260505000804 | 66 | 0 | 0.0 | 0.0 | 0.00 | 0.00 | 0.00 | 62 | 1015.3 |
| 20260505000704 | 66 | 0 | 0.0 | 0.0 | 0.00 | 0.00 | 0.00 | 63 | 1015.3 |
| 20260505000503 | 66 | 351 | 0.0 | 0.9 | 0.00 | 0.00 | 0.00 | 61 | 1015.2 |
| 20260505000204 | 66 | 350 | 0.0 | 0.9 | 0.00 | 0.00 | 0.00 | 58 | 1015.1 |
| 20260505000004 | 66 | 350 | 0.0 | 0.9 | 0.00 | 0.00 | 0.00 | 59 | 1015.1 |
| 20260504235604 | 67 | 350 | 0.0 | 0.9 | 0.00 | 0.00 | 0.00 | 59 | 1015.2 |
| 20260504235504 | 67 | 350 | 0.0 | 0.9 | 0.00 | 0.00 | 0.00 | 59 | 1015.1 |
| 20260504235404 | 67 | 351 | 0.0 | 0.9 | 0.00 | 0.00 | 0.00 | 56 | 1015.0 |
| 20260504235304 | 67 | 351 | 0.0 | 0.9 | 0.00 | 0.00 | 0.00 | 56 | 1015.0 |
| 20260504235104 | 68 | 352 | 0.0 | 0.9 | 0.00 | 0.00 | 0.00 | 60 | 1015.1 |
| 20260504235004 | 68 | 353 | 0.0 | 0.9 | 0.00 | 0.00 | 0.00 | 60 | 1015.0 |
| 20260504234605 | 68 | 354 | 0.0 | 1.7 | 0.00 | 0.00 | 0.00 | 55 | 1014.9 |
| 20260504234404 | 68 | 354 | 0.0 | 1.7 | 0.00 | 0.00 | 0.00 | 58 | 1015.0 |
| 20260504234204 | 68 | 354 | 0.0 | 1.7 | 0.00 | 0.00 | 0.00 | 55 | 1014.9 |
| 20260504234103 | 68 | 355 | 0.0 | 1.7 | 0.00 | 0.00 | 0.00 | 56 | 1015.0 |
| 20260504233804 | 68 | 355 | 0.0 | 1.7 | 0.00 | 0.00 | 0.00 | 59 | 1015.0 |
| 20260504233603 | 68 | 0 | 0.0 | 0.0 | 0.00 | 0.00 | 0.00 | 56 | 1015.0 |
| 20260504233404 | 68 | 0 | 0.0 | 0.0 | 0.00 | 0.00 | 0.00 | 61 | 1015.0 |
| 20260504233003 | 68 | 355 | 0.0 | 1.7 | 0.00 | 0.00 | 0.00 | 61 | 1015.0 |
| 20260504232704 | 67 | 354 | 0.0 | 2.6 | 0.00 | 0.00 | 0.00 | 57 | 1014.9 |
| 20260504232503 | 67 | 354 | 0.0 | 2.6 | 0.00 | 0.00 | 0.00 | 64 | 1015.0 |
| 20260504232203 | 67 | 354 | 0.0 | 2.6 | 0.00 | 0.00 | 0.00 | 60 | 1014.9 |
| 20260504232104 | 67 | 354 | 0.0 | 2.6 | 0.00 | 0.00 | 0.00 | 60 | 1015.0 |
| 20260504231804 | 67 | 9 | 0.0 | 2.6 | 0.00 | 0.00 | 0.00 | 61 | 1015.0 |
| 20260504231604 | 67 | 46 | 0.0 | 3.5 | 0.00 | 0.00 | 0.00 | 61 | 1015.0 |
| 20260504231404 | 68 | 46 | 0.0 | 3.5 | 0.00 | 0.00 | 0.00 | 60 | 1015.0 |
| 20260504231104 | 68 | 46 | 0.0 | 3.5 | 0.00 | 0.00 | 0.00 | 59 | 1015.0 |
| 20260504230904 | 68 | 46 | 0.0 | 3.5 | 0.00 | 0.00 | 0.00 | 56 | 1014.8 |
| 20260504230504 | 68 | 47 | 0.0 | 3.5 | 0.00 | 0.00 | 0.00 | 61 | 1014.9 |
| 20260504230404 | 68 | 48 | 0.0 | 3.5 | 0.00 | 0.00 | 0.00 | 62 | 1014.9 |
| 20260504230303 | 68 | 48 | 0.0 | 3.5 | 0.00 | 0.00 | 0.00 | 59 | 1014.9 |
| 20260504230204 | 69 | 48 | 0.0 | 3.5 | 0.00 | 0.00 | 0.00 | 58 | 1014.9 |
| 20260504225804 | 69 | 43 | 0.0 | 3.5 | 0.00 | 0.00 | 0.00 | 63 | 1014.7 |
| 20260504225403 | 69 | 31 | 0.0 | 2.6 | 0.00 | 0.00 | 0.00 | 58 | 1014.7 |
| 20260504225004 | 69 | 29 | 0.0 | 2.6 | 0.00 | 0.00 | 0.00 | 58 | 1014.7 |
| 20260504224905 | 69 | 25 | 0.0 | 2.6 | 0.00 | 0.00 | 0.00 | 60 | 1014.8 |
| 20260504224703 | 69 | 24 | 0.0 | 2.6 | 0.00 | 0.00 | 0.00 | 56 | 1014.8 |
| 20260504224603 | 69 | 24 | 0.0 | 2.6 | 0.00 | 0.00 | 0.00 | 54 | 1014.7 |
| 20260504224504 | 69 | 24 | 0.0 | 2.6 | 0.00 | 0.00 | 0.00 | 56 | 1014.8 |
| 20260504224304 | 70 | 16 | 0.0 | 1.7 | 0.00 | 0.00 | 0.00 | 58 | 1014.8 |
| 20260504224103 | 70 | 22 | 0.0 | 1.7 | 0.00 | 0.00 | 0.00 | 56 | 1014.8 |
| 20260504223904 | 70 | 31 | 0.0 | 1.7 | 0.00 | 0.00 | 0.00 | 54 | 1014.8 |
| 20260504223804 | 70 | 60 | 0.0 | 1.7 | 0.00 | 0.00 | 0.00 | 55 | 1014.8 |
| 20260504223704 | 70 | 70 | 0.0 | 1.7 | 0.00 | 0.00 | 0.00 | 65 | 1014.9 |
| 20260504223604 | 70 | 70 | 0.0 | 1.7 | 0.00 | 0.00 | 0.00 | 63 | 1014.8 |
| 20260504223505 | 70 | 70 | 0.0 | 1.7 | 0.00 | 0.00 | 0.00 | 59 | 1014.7 |
| 20260504223404 | 70 | 70 | 0.0 | 1.7 | 0.00 | 0.00 | 0.00 | 58 | 1014.7 |
| 20260504223303 | 70 | 67 | 0.0 | 3.5 | 0.00 | 0.00 | 0.00 | 60 | 1014.8 |
| 20260504222904 | 71 | 58 | 0.0 | 3.5 | 0.00 | 0.00 | 0.00 | 53 | 1014.9 |
| 20260504222804 | 72 | 51 | 0.0 | 3.5 | 0.00 | 0.00 | 0.00 | 55 | 1014.9 |
| 20260504222604 | 72 | 51 | 0.0 | 3.5 | 0.00 | 0.00 | 0.00 | 50 | 1014.9 |
| 20260504222403 | 72 | 49 | 0.0 | 3.5 | 0.00 | 0.00 | 0.00 | 50 | 1014.9 |
| 20260504222305 | 72 | 11 | 0.0 | 2.6 | 0.00 | 0.00 | 0.00 | 52 | 1015.0 |
| 20260504222103 | 72 | 0 | 0.0 | 0.0 | 0.00 | 0.00 | 0.00 | 60 | 1015.1 |
| 20260504222004 | 72 | 0 | 0.0 | 0.0 | 0.00 | 0.00 | 0.00 | 58 | 1015.0 |
| 20260504221904 | 72 | 0 | 0.0 | 0.0 | 0.00 | 0.00 | 0.00 | 60 | 1015.1 |
| 20260504221604 | 72 | 0 | 0.0 | 0.0 | 0.00 | 0.00 | 0.00 | 62 | 1015.0 |
| 20260504221403 | 71 | 0 | 0.0 | 0.0 | 0.00 | 0.00 | 0.00 | 60 | 1015.1 |
| 20260504221304 | 71 | 0 | 0.0 | 0.0 | 0.00 | 0.00 | 0.00 | 63 | 1015.1 |
| 20260504221104 | 71 | 0 | 0.0 | 0.0 | 0.00 | 0.00 | 0.00 | 56 | 1015.0 |
| 20260504221004 | 71 | 0 | 0.0 | 0.0 | 0.00 | 0.00 | 0.00 | 62 | 1015.1 |
| 20260504220804 | 71 | 324 | 0.0 | 0.9 | 0.00 | 0.00 | 0.00 | 56 | 1014.9 |
| 20260504220703 | 71 | 324 | 0.0 | 0.9 | 0.00 | 0.00 | 0.00 | 55 | 1014.9 |
| 20260504220304 | 73 | 302 | 0.9 | 0.9 | 0.00 | 0.00 | 0.00 | 58 | 1015.0 |
| 20260504220204 | 73 | 294 | 0.9 | 1.7 | 0.00 | 0.00 | 0.00 | 51 | 1014.8 |
| 20260504220004 | 74 | 291 | 0.9 | 6.1 | 0.00 | 0.00 | 0.00 | 53 | 1014.6 |
| 20260504215903 | 74 | 290 | 0.9 | 6.1 | 0.00 | 0.00 | 0.00 | 53 | 1014.7 |
| 20260504215804 | 74 | 290 | 0.9 | 6.1 | 0.00 | 0.00 | 0.00 | 50 | 1014.7 |
| 20260504215704 | 74 | 289 | 0.9 | 6.1 | 0.00 | 0.00 | 0.00 | 55 | 1014.7 |
| 20260504215604 | 73 | 289 | 0.9 | 6.1 | 0.00 | 0.00 | 0.00 | 51 | 1014.7 |
| 20260504215404 | 73 | 289 | 0.9 | 6.1 | 0.00 | 0.00 | 0.00 | 46 | 1014.6 |
| 20260504215204 | 73 | 289 | 0.9 | 6.1 | 0.00 | 0.00 | 0.00 | 49 | 1014.6 |
| 20260504215104 | 73 | 288 | 0.9 | 6.1 | 0.00 | 0.00 | 0.00 | 53 | 1014.6 |
| 20260504214704 | 73 | 296 | 0.9 | 4.3 | 0.00 | 0.00 | 0.00 | 51 | 1014.7 |
| 20260504214504 | 73 | 297 | 0.9 | 4.3 | 0.00 | 0.00 | 0.00 | 49 | 1014.7 |
| 20260504214404 | 73 | 297 | 0.9 | 4.3 | 0.00 | 0.00 | 0.00 | 50 | 1014.7 |